TimeEDT,TemperatureF,Dew PointF,Humidity,Sea Level PressureIn,VisibilityMPH,Wind Direction,Wind SpeedMPH,Gust SpeedMPH,PrecipitationIn,Events,Conditions,WindDirDegrees,DateUTC
12:17 AM,29.5,21.9,73,30.04,10.0,North,8.1,-,N/A,,Clear,350,2013-04-05 04:17:00
12:36 AM,29.3,22.1,75,30.04,10.0,North,10.4,-,N/A,,Scattered Clouds,360,2013-04-05 04:36:00
12:57 AM,29.1,22.1,75,30.05,10.0,North,11.5,-,N/A,,Scattered Clouds,10,2013-04-05 04:57:00
1:17 AM,28.4,21.6,76,30.05,10.0,North,13.8,17.3,N/A,,Scattered Clouds,10,2013-04-05 05:17:00
1:36 AM,28.9,20.3,70,30.05,10.0,NNE,15.0,-,N/A,,Clear,20,2013-04-05 05:36:00
1:57 AM,28.0,19.4,70,30.06,10.0,North,15.0,-,N/A,,Clear,10,2013-04-05 05:57:00
2:16 AM,28.2,18.5,67,30.07,10.0,North,16.1,-,N/A,,Clear,360,2013-04-05 06:16:00
2:37 AM,28.0,18.0,66,30.07,10.0,North,13.8,-,N/A,,Clear,350,2013-04-05 06:37:00
2:57 AM,28.2,18.9,68,30.07,10.0,North,17.3,24.2,N/A,,Mostly Cloudy,10,2013-04-05 06:57:00
3:16 AM,27.5,17.6,66,30.07,10.0,North,11.5,20.7,N/A,,Scattered Clouds,360,2013-04-05 07:16:00
3:37 AM,27.5,17.8,67,30.07,10.0,North,13.8,-,N/A,,Mostly Cloudy,350,2013-04-05 07:37:00
3:56 AM,27.5,17.2,65,30.08,10.0,North,17.3,-,N/A,,Overcast,360,2013-04-05 07:56:00
4:17 AM,27.3,16.9,65,30.09,10.0,North,15.0,-,N/A,,Mostly Cloudy,10,2013-04-05 08:17:00
4:36 AM,27.0,16.7,65,30.09,10.0,North,11.5,19.6,N/A,,Mostly Cloudy,350,2013-04-05 08:36:00
4:57 AM,26.4,16.0,65,30.10,10.0,North,15.0,-,N/A,,Mostly Cloudy,360,2013-04-05 08:57:00
5:17 AM,26.6,15.6,63,30.11,10.0,North,20.7,-,N/A,,Mostly Cloudy,360,2013-04-05 09:17:00
5:36 AM,26.6,15.8,64,30.12,10.0,North,15.0,18.4,N/A,,Mostly Cloudy,360,2013-04-05 09:36:00
5:57 AM,26.4,15.8,64,30.13,10.0,North,11.5,-,N/A,,Overcast,360,2013-04-05 09:57:00
6:50 AM,26.6,15.8,64,30.15,10.0,North,10.4,-,N/A,,Overcast,350,2013-04-05 10:50:00
7:50 AM,24.8,15.8,69,30.17,10.0,NNW,9.2,-,N/A,,Overcast,340,2013-04-05 11:50:00
8:50 AM,24.8,15.8,69,30.18,10.0,North,13.8,-,N/A,,Overcast,360,2013-04-05 12:50:00
9:50 AM,26.6,15.8,64,30.20,10.0,North,19.6,-,N/A,,Overcast,10,2013-04-05 13:50:00
10:50 AM,26.6,15.8,64,30.21,10.0,North,12.7,-,N/A,,Mostly Cloudy,350,2013-04-05 14:50:00
11:50 AM,28.4,15.8,59,30.22,10.0,North,5.8,-,N/A,,Scattered Clouds,10,2013-04-05 15:50:00
12:50 PM,28.4,15.8,59,30.21,10.0,NE,10.4,-,N/A,,Scattered Clouds,50,2013-04-05 16:50:00
1:50 PM,30.2,15.8,55,30.21,10.0,ENE,6.9,-,N/A,,Partly Cloudy,70,2013-04-05 17:50:00
2:50 PM,30.2,17.6,60,30.18,10.0,NE,11.5,-,N/A,,Clear,50,2013-04-05 18:50:00
3:50 PM,30.2,15.8,55,30.17,10.0,NNE,9.2,-,N/A,,Clear,30,2013-04-05 19:50:00
4:50 PM,30.2,17.6,60,30.17,10.0,ENE,11.5,-,N/A,,Clear,70,2013-04-05 20:50:00
5:50 PM,30.2,17.6,60,30.17,10.0,NNE,8.1,-,N/A,,Clear,30,2013-04-05 21:50:00
6:50 PM,28.4,15.8,59,30.17,10.0,NNE,8.1,-,N/A,,Clear,30,2013-04-05 22:50:00
7:55 PM,28.4,15.8,59,30.17,10.0,NE,5.8,-,N/A,,Clear,50,2013-04-05 23:55:00
8:50 PM,26.6,14.0,59,30.17,10.0,ENE,3.5,-,N/A,,Clear,70,2013-04-06 00:50:00
9:50 PM,26.6,15.8,64,30.17,10.0,ENE,3.5,-,N/A,,Clear,70,2013-04-06 01:50:00
10:17 PM,26.4,16.9,67,30.16,10.0,East,4.6,-,N/A,,Clear,100,2013-04-06 02:17:00
10:36 PM,26.1,16.9,68,30.16,10.0,East,3.5,-,N/A,,Clear,80,2013-04-06 02:36:00
10:57 PM,26.1,16.7,68,30.15,10.0,Calm,Calm,-,N/A,,Clear,0,2013-04-06 02:57:00
11:17 PM,25.7,17.1,70,30.15,10.0,Calm,Calm,-,N/A,,Clear,0,2013-04-06 03:17:00
11:36 PM,25.7,17.1,70,30.14,10.0,Calm,Calm,-,N/A,,Clear,0,2013-04-06 03:36:00
11:57 PM,25.7,16.7,69,30.14,10.0,Calm,Calm,-,N/A,,Clear,0,2013-04-06 03:57:00